Regional Weather Roundup
Issued by NWS

Home | Current Version | Previous Version | Graphics & Text | Print | Product List | Glossary On
Versions: 1 2 3 4 5 6 7 8 9 10 11 12 13 14 15 16 17 18 19 20 21 22 23 24 25 26 27
000
ASUS43 KDMX 301607
RWRIA

WEATHER ROUNDUP FOR IOWA
NATIONAL WEATHER SERVICE DES MOINES IA
1100 AM CDT THU OCT 30 2014

NOTE: "FAIR" INDICATES FEW OR NO CLOUDS BELOW 12,000 FEET WITH NO
SIGNIFICANT WEATHER AND/OR OBSTRUCTIONS TO VISIBILITY.

* - THESE STATIONS ARE NOT NWS STATIONS...THUS NOT UNDER NWS
QUALITY CONTROL.  THEY ALSO DO NOT REPORT WEATHER SUCH
AS PRECIPITATION OR FOG.

IAZ001>003-012>014-020>022-031>034-043>046-301700-
   NORTHWEST IOWA

CITY           SKY/WX    TMP DP  RH WIND       PRES   REMARKS
CARROLL *      CLOUDY    52  37  58 W9        30.02S
CHEROKEE *     SUNNY     50  39  66 NW10      30.04R
DENISON *      MOSUNNY   50  37  62 NW8G15    30.02S
LE MARS *      SUNNY     52  37  58 NW14      30.07R
ORANGE CITY *  SUNNY     52  37  58 NW13      30.05R
SHELDON *      SUNNY     50  36  57 N15       30.04R
SIOUX CITY     SUNNY     52  37  56 NW17      30.07R
SPENCER        MOSUNNY   50  36  58 N8        30.03R
STORM LAKE *   SUNNY     50  36  57 NW12G17   30.03R
$$

IAZ055>058-069>071-079>083-090>094-301700-
   SOUTHWEST IOWA

CITY           SKY/WX    TMP DP  RH WIND       PRES   REMARKS
ATLANTIC *     SUNNY     52  37  58 N8        30.03R
AUDUBON *      SUNNY     52  34  50 NW3       30.03S
CLARINDA *     SUNNY     54  39  58 NW9G15    30.04S
COUNCIL BLFS * SUNNY     54  37  54 NW12      30.05R
CRESTON *      SUNNY     50  37  62 NW5       30.02S
HARLAN  *      MOSUNNY   54  37  54 NW16      30.06S
LAMONI         SUNNY     53  39  59 CALM      30.01F
RED OAK *      SUNNY     54  37  54 NW10G16   30.04S
SHENANDOAH *   SUNNY     54  39  58 NW8       30.05S
$$

IAZ047>049-059>061-072>074-084-301700-
   CENTRAL IOWA

CITY           SKY/WX    TMP DP  RH WIND       PRES   REMARKS
AMES           CLOUDY    49  37  63 CALM      30.03F
ANKENY *       SUNNY     54  39  58 CALM      30.02F
CHARITON *     SUNNY     50  39  66 SE7       30.02F
DES MOINES     MOSUNNY   54  37  52 SW6       30.02S
GRINNELL*      MOSUNNY   52  39  62 SE12      30.03F
KNOXVILLE *    SUNNY     54  37  54 S9        30.00F
MARSHALLTOWN   SUNNY     50  39  66 SE6       30.03S
PELLA *        SUNNY     54  39  58 S10       30.03F
PERRY *          N/A     52  37  58 SW6       30.02S
$$

IAZ004>006-015-016-023>025-035-036-301700-
   NORTH CENTRAL IOWA

CITY           SKY/WX    TMP DP  RH WIND       PRES   REMARKS
ALGONA *       CLOUDY    46  37  71 SE6       30.04S
CLARION *      PTSUNNY   52  39  62 S8        30.03F
ESTHERVILLE    CLOUDY    47  35  63 CALM      30.03R
FORT DODGE *   CLOUDY    48  37  66 S5          N/A
MASON CITY     CLOUDY    45  38  76 SE6       30.06S
FOREST CITY *  CLOUDY    45  37  76 SE3       30.05R
IOWA FALLS *   CLOUDY    48  39  71 CALM      30.06R
$$

IAZ007>011-017>019-026>030-037>042-050>054-066-301700-
   NORTHEAST IOWA

CITY           SKY/WX    TMP DP  RH WIND       PRES   REMARKS
CEDAR RAPIDS   CLOUDY    44  39  82 S9        30.06S
CHARLES CITY * PTSUNNY   46  37  71 VRB5      30.07F
CLINTON *      PTSUNNY   45  37  76 S7        30.14F
DECORAH *      CLOUDY    43  36  75 VRB3      30.07S
DUBUQUE        PTSUNNY   46  37  71 S9        30.09S
MONTICELLO *   PTSUNNY   46  37  71 S9        30.08S
OELWEIN *      CLOUDY    46  37  71 S9        30.08S
WATERLOO       PTSUNNY   49  37  63 S7        30.07R
$$

IAZ064-065-067-068-078-301700-
   EAST CENTRAL IOWA

CITY           SKY/WX    TMP DP  RH WIND       PRES   REMARKS
DAVENPORT      PTSUNNY   46  34  62 S7        30.12S
IOWA CITY      CLOUDY    46  39  76 SE9       30.09F
MT. PLEASANT * CLOUDY    46  37  71 SE5       30.08S
MUSCATINE *    CLOUDY    45  37  76 E5        30.10F
QUAD CITIES    CLOUDY    46  36  68 CALM      30.11S
$$

IAZ062-063-075>077-085>089-095>099-301700-
   SOUTHEAST IOWA

CITY           SKY/WX    TMP DP  RH WIND       PRES   REMARKS
BURLINGTON     CLOUDY    47  38  71 E5        30.07F
FAIRFIELD *    CLOUDY    48  37  66 SE8       30.06F
FORT MADISON * CLOUDY    48  39  71 S5        30.08S
KEOKUK *       PTSUNNY   48  39  71 SE12G18   30.04F
OSKALOOSA *      N/A     50  37  62 SE14      30.04F
CENTERVILLE *  SUNNY     52  37  58 SW3       30.04R
OTTUMWA        MOSUNNY   50  38  63 SE13      30.03F
WASHINGTON *   CLOUDY    46  41  81 E7        30.07F
$$

ABBREVIATIONS USED IN REMARKS
   TC - TEMPERATURES IN CELSIUS
  WCI - WIND CHILL INDEX
   HX - HEAT INDEX
  VSB - VISIBILITY
$$




USA.gov is the U.S. government's official web portal to all federal, state and local government web resources and services.